Weather History for Wharton, TX

Change the Weather History Date:

Tuesday, January 7, 2014

  Actual Average (KPSX) Record (KPSX)
Temperature  
Mean Temperature 34 °F -  
Max Temperature 47 °F 59 °F 75 °F (1965)
Min Temperature 21 °F 43 °F 21 °F (1970)
Degree Days  
Heating Degree Days 31    
Moisture  
Dew Point 22 °F    
Average Humidity 59    
Maximum Humidity 88    
Minimum Humidity 32    
Precipitation  
Precipitation 0.00 in - - ()
Sea Level Pressure  
Sea Level Pressure 30.55 in    
Wind  
Wind Speed 3 mph (ESE)    
Max Wind Speed 12 mph    
Max Gust Speed -    
Visibility 10 miles    
Events      
Averages and records for this station are not official NWS values.
T = Trace of Precipitation, MM = Missing Value Source: NWS Daily Summary

Daily Weather History Graph

Daily Weather History Graph

Search for Another Location

Airport:

Trip Planner

Search our weather history database for the weather conditions in past years. The results will help you decide how hot, cold, wet, or windy it might be!

Date:

Astronomy

Jan. 07, 2014 Rise Set
Actual Time 7:19 AM CST 5:42 PM CST
Civil Twilight 6:53 AM CST 6:08 PM CST
Nautical Twilight 6:24 AM CST 6:37 PM CST
Astronomical Twilight 5:55 AM CST 7:06 PM CST
Moon 11:43 AM CST (1/7) No Moon Set
Length of Visible Light 11h 14m
Length of Day
10h 22m
Waxing Crescent, 46% of the Moon is Illuminated
Jan 7
Waxing Crescent
Jan 7
First Quarter
Jan 15
Full
Jan 23
Last Quarter
Jan 30
New

Hourly Weather History & Observations

Time (CST) Temp. Windchill Dew Point Humidity Pressure Visibility Wind Dir Wind Speed Gust Speed Precip Events Conditions
12:15 AM 26.6 °F - 14.9 °F 61% 30.68 in 10.0 mi Calm Calm - N/A   Clear
12:35 AM 24.1 °F 18.2 °F 15.3 °F 69% 30.67 in 10.0 mi North 4.6 mph - N/A   Clear
12:55 AM 23.2 °F 17.2 °F 15.4 °F 72% 30.66 in 10.0 mi North 4.6 mph - N/A   Clear
1:15 AM 23.4 °F - 15.4 °F 72% 30.65 in 10.0 mi Calm Calm - N/A   Clear
1:35 AM 23.2 °F - 15.4 °F 72% 30.65 in 10.0 mi Calm Calm - N/A   Clear
1:55 AM 23.9 °F - 15.1 °F 69% 30.65 in 10.0 mi Calm Calm - N/A   Clear
2:15 AM 23.5 °F - 15.4 °F 71% 30.65 in 10.0 mi Calm Calm - N/A   Clear
2:35 AM 23.9 °F - 16.3 °F 73% 30.65 in 10.0 mi Calm Calm - N/A   Clear
2:55 AM 23.5 °F - 16.5 °F 75% 30.65 in 10.0 mi Calm Calm - N/A   Clear
3:15 AM 22.6 °F - 16.5 °F 77% 30.65 in 10.0 mi Calm Calm - N/A   Clear
3:35 AM 22.3 °F - 16.7 °F 79% 30.65 in 10.0 mi Calm Calm - N/A   Clear
3:55 AM 22.6 °F - 17.2 °F 80% 30.65 in 10.0 mi Calm Calm - N/A   Clear
4:15 AM 22.6 °F - 17.6 °F 81% 30.64 in 10.0 mi Calm Calm - N/A   Clear
4:35 AM 22.3 °F - 18.1 °F 84% 30.64 in 10.0 mi Calm Calm - N/A   Clear
4:55 AM 21.4 °F - 18.1 °F 87% 30.64 in 10.0 mi Calm Calm - N/A   Clear
5:15 AM 22.3 °F - 19.2 °F 88% 30.64 in 10.0 mi Calm Calm - N/A   Clear
5:35 AM 23.4 °F - 19.9 °F 87% 30.65 in 10.0 mi Calm Calm - N/A   Clear
5:55 AM 23.9 °F - 20.3 °F 86% 30.64 in 10.0 mi Calm Calm - N/A   Clear
6:15 AM 23.9 °F - 19.9 °F 85% 30.64 in 10.0 mi Calm Calm - N/A   Clear
6:35 AM 24.8 °F - 18.3 °F 76% 30.65 in 10.0 mi Calm Calm - N/A   Clear
6:55 AM 25.2 °F - 19.8 °F 80% 30.65 in 10.0 mi Calm Calm - N/A   Clear
7:15 AM 24.3 °F - 20.8 °F 87% 30.65 in 10.0 mi Calm Calm - N/A   Clear
7:35 AM 23.9 °F - 18.3 °F 79% 30.65 in 10.0 mi Calm Calm - N/A   Clear
7:55 AM 24.1 °F - 17.6 °F 76% 30.65 in 10.0 mi Calm Calm - N/A   Clear
8:15 AM 27.1 °F - 17.8 °F 68% 30.65 in 10.0 mi Calm Calm - N/A   Clear
8:35 AM 29.7 °F 23.7 °F 16.0 °F 57% 30.65 in 10.0 mi ENE 5.8 mph - N/A   Clear
8:55 AM 30.9 °F 22.2 °F 15.1 °F 52% 30.64 in 10.0 mi ENE 10.4 mph - N/A   Clear
9:15 AM 32.0 °F 26.4 °F 14.0 °F 48% 30.65 in 10.0 mi East 5.8 mph - N/A   Clear
9:35 AM 32.4 °F 26.0 °F 14.2 °F 47% 30.66 in 10.0 mi East 6.9 mph - N/A   Clear
9:55 AM 32.4 °F 24.6 °F 14.2 °F 47% 30.65 in 10.0 mi East 9.2 mph - N/A   Clear
10:15 AM 34.9 °F 28.3 °F 16.3 °F 47% 30.65 in 10.0 mi East 8.1 mph - N/A   Clear
10:35 AM 35.6 °F 28.6 °F 16.0 °F 45% 30.64 in 10.0 mi East 9.2 mph - N/A   Clear
10:55 AM 37.8 °F 32.5 °F 16.9 °F 43% 30.63 in 10.0 mi ESE 6.9 mph - N/A   Clear
11:15 AM 40.3 °F 35.5 °F 17.4 °F 40% 30.62 in 10.0 mi East 6.9 mph - N/A   Clear
11:35 AM 41.7 °F 36.7 °F 18.1 °F 39% 30.60 in 10.0 mi ESE 8.1 mph - N/A   Clear
11:55 AM 43.9 °F 40.5 °F 18.7 °F 37% 30.59 in 10.0 mi ESE 5.8 mph - N/A   Clear
12:15 PM 43.9 °F 41.3 °F 19.2 °F 37% 30.58 in 10.0 mi SSE 4.6 mph - N/A   Clear
12:35 PM 45.5 °F 42.5 °F 18.7 °F 34% 30.56 in 10.0 mi SSE 5.8 mph - N/A   Clear
12:55 PM 47.5 °F - 18.5 °F 32% 30.54 in 10.0 mi SSE 9.2 mph - N/A   Clear
1:15 PM 45.7 °F 42.7 °F 19.4 °F 35% 30.52 in 10.0 mi SE 5.8 mph - N/A   Mostly Cloudy
1:35 PM 45.5 °F 42.5 °F 16.7 °F 32% 30.52 in 10.0 mi SE 5.8 mph - N/A   Overcast
1:55 PM 45.5 °F 41.3 °F 18.7 °F 34% 30.51 in 10.0 mi SSE 8.1 mph - N/A   Overcast
2:15 PM 45.5 °F 43.2 °F 18.0 °F 33% 30.50 in 10.0 mi SE 4.6 mph - N/A   Overcast
2:35 PM 45.7 °F 43.4 °F 16.9 °F 32% 30.49 in 10.0 mi South 4.6 mph - N/A   Overcast
2:55 PM 46.6 °F - 17.8 °F 32% 30.49 in 10.0 mi ESE 6.9 mph - N/A   Overcast
3:15 PM 46.2 °F 45.0 °F 18.5 °F 33% 30.49 in 10.0 mi SSE 3.5 mph - N/A   Overcast
3:35 PM 46.6 °F - 19.0 °F 33% 30.49 in 10.0 mi ESE 3.5 mph - N/A   Overcast
3:55 PM 46.4 °F 43.5 °F 20.5 °F 36% 30.49 in 10.0 mi ESE 5.8 mph - N/A   Overcast
4:15 PM 46.4 °F 41.9 °F 23.0 °F 40% 30.48 in 10.0 mi SE 9.2 mph - N/A   Overcast
4:35 PM 46.4 °F 41.9 °F 23.9 °F 41% 30.48 in 10.0 mi SE 9.2 mph - N/A   Overcast
4:55 PM 46.4 °F 41.9 °F 26.2 °F 45% 30.47 in 10.0 mi ESE 9.2 mph - N/A   Overcast
5:15 PM 45.5 °F 39.9 °F 27.7 °F 50% 30.47 in 10.0 mi ESE 11.5 mph - N/A   Overcast
5:35 PM 44.4 °F 39.5 °F 28.2 °F 53% 30.47 in 10.0 mi SE 9.2 mph - N/A   Overcast
5:55 PM 44.2 °F 39.2 °F 27.7 °F 52% 30.47 in 10.0 mi SE 9.2 mph - N/A   Overcast
6:15 PM 44.1 °F 40.1 °F 28.0 °F 53% 30.46 in 10.0 mi ESE 6.9 mph - N/A   Overcast
6:35 PM 44.1 °F 40.1 °F 29.1 °F 56% 30.46 in 10.0 mi ESE 6.9 mph - N/A   Overcast
6:55 PM 43.9 °F 38.8 °F 29.8 °F 58% 30.45 in 10.0 mi ESE 9.2 mph - N/A   Overcast
7:15 PM 43.7 °F 39.1 °F 30.2 °F 59% 30.45 in 10.0 mi East 8.1 mph - N/A   Overcast
7:35 PM 43.2 °F 39.0 °F 30.0 °F 60% 30.45 in 10.0 mi East 6.9 mph - N/A   Overcast
7:55 PM 42.8 °F 37.5 °F 30.2 °F 61% 30.45 in 10.0 mi East 9.2 mph - N/A   Overcast
8:15 PM 42.8 °F 37.5 °F 30.7 °F 62% 30.45 in 10.0 mi East 9.2 mph - N/A   Overcast
8:35 PM 42.8 °F 38.0 °F 31.1 °F 63% 30.44 in 10.0 mi East 8.1 mph - N/A   Overcast
8:55 PM 42.8 °F 37.5 °F 31.5 °F 64% 30.43 in 10.0 mi East 9.2 mph - N/A   Overcast
9:15 PM 43.0 °F 37.2 °F 31.8 °F 65% 30.43 in 10.0 mi East 10.4 mph - N/A   Overcast
9:35 PM 43.0 °F 37.7 °F 32.0 °F 65% 30.42 in 10.0 mi East 9.2 mph - N/A   Overcast
9:55 PM 43.2 °F 38.4 °F 32.2 °F 65% 30.42 in 10.0 mi East 8.1 mph - N/A   Overcast
10:15 PM 43.3 °F 38.6 °F 32.5 °F 66% 30.41 in 10.0 mi East 8.1 mph - N/A   Overcast
10:35 PM 43.7 °F 40.3 °F 33.1 °F 66% 30.40 in 10.0 mi East 5.8 mph - N/A   Overcast
10:55 PM 43.7 °F 39.7 °F 33.4 °F 67% 30.39 in 10.0 mi East 6.9 mph - N/A   Overcast
11:15 PM 44.2 °F 41.0 °F 34.3 °F 68% 30.38 in 10.0 mi East 5.8 mph - N/A   Overcast
11:35 PM 44.6 °F 40.2 °F 34.9 °F 69% 30.38 in 10.0 mi East 8.1 mph - N/A   Overcast
11:55 PM 45.0 °F 41.8 °F 35.2 °F 69% 30.38 in 10.0 mi East 5.8 mph - N/A   Overcast